Weather History for Northeast Philadelphia, PA

Change the Weather History Date:

Wednesday, February 13, 2013

  Actual Average Record
Temperature  
Mean Temperature 35 °F -  
Max Temperature 43 °F 41 °F 50 °F (2001)
Min Temperature 27 °F 25 °F 1 °F (2011)
Degree Days  
Heating Degree Days 30    
Moisture  
Dew Point 27 °F    
Average Humidity 76    
Maximum Humidity 93    
Minimum Humidity 49    
Precipitation  
Precipitation 0.12 in - - ()
Sea Level Pressure  
Sea Level Pressure 29.81 in    
Wind  
Wind Speed 4 mph (NNE)    
Max Wind Speed 8 mph    
Max Gust Speed -    
Visibility 7 miles    
Events Rain , Snow    
Averages and records for this station are not official NWS values.
T = Trace of Precipitation, MM = Missing Value Source: NWS Daily Summary

Daily Weather History Graph

Daily Weather History Graph

Search for Another Location

Airport:

Trip Planner

Search our weather history database for the weather conditions in past years. The results will help you decide how hot, cold, wet, or windy it might be!

Date:

Astronomy

Feb. 13, 2013 Rise Set
Actual Time 6:55 AM EST 5:33 PM EST
Civil Twilight 6:27 AM EST 6:01 PM EST
Nautical Twilight 5:55 AM EST 6:33 PM EST
Astronomical Twilight 5:24 AM EST 7:05 PM EST
Moon 8:23 AM EST (2/13) 9:34 PM EST (2/13)
Length of Visible Light 11h 34m
Length of Day
10h 38m
Waxing Crescent, 13% of the Moon is Illuminated
Feb 13
Waxing Crescent
Feb 17
First Quarter
Feb 25
Full
Mar 4
Last Quarter
Mar 11
New

Hourly Weather History & Observations

Time (EST) Temp. Windchill Dew Point Humidity Pressure Visibility Wind Dir Wind Speed Gust Speed Precip Events Conditions
12:54 AM 30.9 °F - 23.0 °F 72% 29.98 in 10.0 mi Calm Calm - N/A   Clear
1:54 AM 30.0 °F 26.5 °F 24.1 °F 79% 29.99 in 10.0 mi NW 3.5 mph - N/A   Clear
2:54 AM 28.9 °F 25.2 °F 24.1 °F 82% 29.97 in 10.0 mi NNW 3.5 mph - N/A   Clear
3:54 AM 27.0 °F - 21.9 °F 81% 29.94 in 10.0 mi Calm Calm - N/A   Clear
4:54 AM 27.0 °F - 21.9 °F 81% 29.95 in 10.0 mi Calm Calm - N/A   Clear
5:54 AM 27.0 °F - 21.9 °F 81% 29.93 in 10.0 mi Calm Calm - N/A   Clear
6:54 AM 27.0 °F - 23.0 °F 85% 29.94 in 10.0 mi Calm Calm - N/A   Clear
7:54 AM 28.0 °F - 24.1 °F 85% 29.93 in 8.0 mi Calm Calm - N/A   Clear
8:54 AM 34.0 °F 29.8 °F 25.0 °F 70% 29.91 in 10.0 mi NE 4.6 mph - N/A   Clear
9:54 AM 37.0 °F 33.3 °F 24.1 °F 59% 29.92 in 10.0 mi East 4.6 mph - N/A   Clear
10:54 AM 39.0 °F 35.7 °F 25.0 °F 57% 29.90 in 10.0 mi East 4.6 mph - N/A   Clear
11:54 AM 39.9 °F 35.8 °F 25.0 °F 55% 29.88 in 10.0 mi ENE 5.8 mph - N/A   Clear
12:54 PM 41.0 °F 36.4 °F 25.0 °F 53% 29.83 in 10.0 mi East 6.9 mph - N/A   Clear
1:54 PM 43.0 °F 39.5 °F 26.1 °F 51% 29.79 in 10.0 mi ESE 5.8 mph - N/A   Clear
2:54 PM 43.0 °F 38.8 °F 25.0 °F 49% 29.77 in 10.0 mi ESE 6.9 mph - N/A   Clear
3:54 PM 43.0 °F 38.2 °F 27.0 °F 53% 29.73 in 10.0 mi East 8.1 mph - N/A   Mostly Cloudy
4:54 PM 42.1 °F 37.1 °F 27.0 °F 55% 29.70 in 10.0 mi ENE 8.1 mph - N/A   Overcast
5:54 PM 41.0 °F 36.4 °F 28.9 °F 62% 29.70 in 10.0 mi NE 6.9 mph - 0.00 in   Overcast
6:54 PM 39.9 °F 36.7 °F 28.0 °F 63% 29.71 in 10.0 mi ENE 4.6 mph - 0.00 in Rain Light Rain
7:35 PM 35.6 °F 29.2 °F 32.0 °F 87% 29.73 in 5.0 mi NNE 8.1 mph - 0.01 in Rain Light Rain
7:54 PM 35.1 °F 28.6 °F 30.9 °F 85% 29.73 in 4.0 mi North 8.1 mph - 0.02 in Snow Light Snow
8:41 PM 33.8 °F 27.0 °F 30.2 °F 87% 29.72 in 2.0 mi NNE 8.1 mph - 0.03 in Snow Light Snow
8:54 PM 34.0 °F 28.8 °F 30.9 °F 89% 29.73 in 2.5 mi NNE 5.8 mph - 0.03 in Snow Light Snow
9:09 PM 33.8 °F 27.7 °F 30.2 °F 87% 29.72 in 2.5 mi NNE 6.9 mph - 0.01 in Snow Light Snow
9:31 PM 33.8 °F 27.7 °F 30.2 °F 87% 29.72 in 2.0 mi NNE 6.9 mph - 0.02 in Snow Light Snow
9:42 PM 33.8 °F 28.6 °F 30.2 °F 87% 29.72 in 1.8 mi North 5.8 mph - 0.02 in Snow Light Snow
9:54 PM 33.1 °F 26.9 °F 30.9 °F 92% 29.72 in 1.5 mi North 6.9 mph - 0.03 in Snow Light Snow
10:09 PM 33.8 °F 28.6 °F 32.0 °F 93% 29.71 in 2.0 mi North 5.8 mph - 0.00 in Snow Light Snow
10:18 PM 33.8 °F 27.7 °F 30.2 °F 87% 29.71 in 2.5 mi North 6.9 mph - 0.00 in Snow Light Snow
10:54 PM 33.1 °F 26.9 °F 30.9 °F 92% 29.72 in 1.8 mi North 6.9 mph - 0.02 in Snow Light Snow
11:06 PM 33.8 °F 27.7 °F 30.2 °F 87% 29.72 in 2.0 mi North 6.9 mph - 0.00 in Snow Light Snow
11:17 PM 33.8 °F 27.7 °F 30.2 °F 87% 29.73 in 4.0 mi North 6.9 mph - 0.01 in Snow Light Snow
11:54 PM 33.1 °F 27.7 °F 30.9 °F 92% 29.74 in 3.0 mi NNW 5.8 mph - 0.02 in Snow Light Snow